Aeroporto :
LOGIN :

Iscrizione | Disclaimer

   EN    FR    IT 

 










Sommario :    VFR   VFR Marginale   IFR   IFR Intensivo   IFR Molto Intensivo
Visibilità : 
Base nubi : 
>= 8 km
>= 3000ft
5 / 8 km
1000 / 3000 ft
1500m / 5 km
500 / 1000 ft
800 / 1500m
200 / 500 ft
< 800m
< 200 ft
Simboli :   Temporali  Nebbia  Neve Forte  Precipitazioni Forti  Vento > 20 kt
SIGMETs :   Varie  Temporali  Ghiacco  Turbolenza  Onda orograficha  Ceneri Vulcaniche






- Altitudine del aeroporto : 306 ft
- Codice IATA : EMA


EGNX - Nottingham East Midlands

ULTIMO METAR :
  • 080550Z 20003KT CAVOK 08/03 Q1025

METARs OBSOLETI :
  • 080450Z VRB01KT CAVOK 10/03 Q1025
  • 080420Z 01002KT CAVOK 10/03 Q1025
  • 080350Z VRB03KT CAVOK 10/03 Q1025
  • 080320Z VRB02KT CAVOK 10/03 Q1026

TAF TAF EGNX
Valido dal 08 a 06 ore il 09 a 06 ore UTC


080454Z 0806/0906 VRB04KT 9999 FEW040
PROB30 0806/0810 6000
PROB30
TEMPO 0810/0819 6000 SHRA
PROB30 0902/0906 8000
ATIS : +44 1332 852 852 (ext 3201)



MetMap, La meteo Aeronautica in un colpo d'occhio ! - Copyright ORBIFLY Dicembre 2007 - Disclaimer

ORBIFLY MET'MAP TEAM :

Programmazione e sviluppo : Alexandra Zaïnal
Concezione : Baudouin d'Aumeries
Aiuto per la programmazione : Marc-Olivier Méhu
Supporto tecnico e logistico : Manuel Goepfert
Aiuto per la traduzione : Arnaldo La Scala

Contatto : metmap@orbifly.com




FONTI E CREDITI :

   NOAA